Погода в Пальянове

Россия / Ханты-Мансийский автономный округ - Югра     61°38′35″N   66°53′17″E
темп.,
°C
ветер,
м/с
пор.,
м/с
влажн.,
%
обл.,
%
осадки,
мм/ч
давл.,
гПа
погр.,
м
12 мая, ср
ср1223:00+8сз49755 0.1 1026453
02:00+5ссз258652 0.0 1026116
05:00+5ссз2383100 0.0 102797
08:00+9зсз1250100 0.0 1027369
11:00+13зюз2335100 0.0 1025924
14:00+11юз4758100 0.0 1024530
17:00+12з4766100 0.0 1023628
20:00+11зюз2487100 0.3 102292
13 мая, чт
чт1323:00+10зюз2595100 1.3 102094
02:00+11зюз2391100 0.3 101948
05:00+12зсз3129199 0.4 1019383
08:00+14ссз6117455 0.0 1021928
11:00+15ссз694584 0.0 10231216
14:00+17ссз573449 0.0 10241481
17:00+17ссз453026 0.0 10251437
20:00+14сз23405 0.0 102654
14 мая, пт
пт1423:00+11ю11465 0.0 102510
02:00+9ююз37530 0.0 1024103
05:00+10ююз4135779 0.0 1021286
08:00+16зюз514570 0.0 1019424
11:00+25з712375 0.0 10162170
14:00+27зсз711275 0.0 10153074
17:00+27зсз51130100 0.0 10143395
20:00+21зюз5124758 0.0 1014383
15 мая, сб
сб1523:00+19з51556100 0.3 1013445
02:00+16зюз41376100 0.3 1012350
05:00+15з41281100 0.7 1012340
08:00+20з5960100 0.1 1012749
11:00+23з6947100 0.1 10121681
14:00+25зсз6103679 0.0 10112811
17:00+22с574992 0.1 1010792
20:00+16ссз367899 0.9 1011307
16 мая, вс
вс1623:00+14зюз4994100 2.9 1011379
02:00+12с71091100 2.3 1012686
05:00+9ссз588599 2.4 1016663
08:00+9с4676100 0.0 1019788
11:00+10ссв237098 0.0 1021904
14:00+12всв1158100 0.0 10211044
17:00+13юв1261100 0.1 1020798
20:00+11всв5772100 0.3 1018426